Tuscaloosa, AL

8:40 PM CDT on July 21, 2017 (GMT -0500)
Tuscaloosa Municipal

Weather History for KTCL - March, 2013

Change the Weather History Date:

Saturday, March 9, 2013

  Actual Average Record
Temperature  
Mean Temperature 57 °F 55 °F  
Max Temperature 74 °F 67 °F 86 °F (1974)
Min Temperature 40 °F 42 °F 16 °F (1996)
Degree Days  
Heating Degree Days 8 11  
Month to date heating degree days 170 106  
Since 1 July heating degree days 2022 2196  
Growing Degree Days 7 (Base 50)    
Moisture  
Dew Point 34 °F    
Average Humidity 51    
Maximum Humidity 79    
Minimum Humidity 23    
Precipitation  
Precipitation 0.00 in 0.16 in 2.67 in (2011)
Month to date precipitation 0.29 1.48  
Year to date precipitation 11.06 12.15  
Sea Level Pressure  
Sea Level Pressure 30.15 in    
Wind  
Wind Speed 6 mph (SE)    
Max Wind Speed 16 mph    
Max Gust Speed 21 mph    
Visibility 9 miles    
Events      
T = Trace of Precipitation, MM = Missing Value Source: NWS Daily Summary

Daily Weather History Graph

Daily Weather History Graph

Search for Another Location

Airport or City:

Trip Planner

Search our weather history database for the weather conditions in past years. The results will help you decide how hot, cold, wet, or windy it might be!

Date:

Astronomy

Mar. 09, 2013 Rise Set
Actual Time 6:08 AM CST 5:53 PM CST
Civil Twilight 5:43 AM CST 6:18 PM CST
Nautical Twilight 5:14 AM CST 6:47 PM CST
Astronomical Twilight 4:46 AM CST 7:16 PM CST
Moon 4:26 AM CST (3/9) 3:59 PM CST (3/9)
Length of Visible Light 12h 35m
Length of Day
11h 45m
Waning Crescent, 5% of the Moon is Illuminated
Mar 9
Waning Crescent
Mar 11
New
Mar 19
First Quarter
Mar 27
Full
Apr 2
Last Quarter

Hourly Weather History & Observations

Time (CST) Temp. Windchill Dew Point Humidity Pressure Visibility Wind Dir Wind Speed Gust Speed Precip Events Conditions
12:53 AM 45.0 °F - 33.1 °F 63% 30.22 in 10.0 mi Calm Calm - N/A   Clear
1:53 AM 41.0 °F 39.0 °F 35.1 °F 79% 30.20 in 10.0 mi NNE 3.5 mph - N/A   Clear
2:53 AM 41.0 °F 38.0 °F 34.0 °F 76% 30.19 in 10.0 mi NE 4.6 mph - N/A   Clear
3:53 AM 43.0 °F - 34.0 °F 71% 30.20 in 10.0 mi Calm Calm - N/A   Clear
4:53 AM 46.0 °F 43.9 °F 32.0 °F 58% 30.20 in 10.0 mi ENE 4.6 mph - N/A   Clear
5:53 AM 44.1 °F 41.5 °F 35.1 °F 71% 30.22 in 10.0 mi West 4.6 mph - N/A   Clear
6:53 AM 48.9 °F - 28.9 °F 46% 30.21 in 10.0 mi ESE 8.1 mph - N/A   Clear
7:53 AM 53.1 °F - 26.1 °F 35% 30.24 in 10.0 mi ESE 4.6 mph - N/A   Clear
8:53 AM 57.0 °F - 28.0 °F 33% 30.22 in 10.0 mi SSE 5.8 mph - N/A   Clear
9:53 AM 60.1 °F - 30.9 °F 33% 30.24 in 10.0 mi South 4.6 mph - N/A   Clear
10:53 AM 63.0 °F - 32.0 °F 31% 30.23 in 9.0 mi Variable 3.5 mph - N/A   Clear
11:53 AM 66.0 °F - 33.1 °F 29% 30.20 in 8.0 mi NNE 4.6 mph - N/A   Clear
12:53 PM 70.0 °F - 34.0 °F 27% 30.16 in 8.0 mi South 6.9 mph - N/A   Clear
1:53 PM 73.0 °F - 34.0 °F 24% 30.13 in 9.0 mi South 11.5 mph 17.3 mph N/A   Clear
2:53 PM 73.0 °F - 33.1 °F 23% 30.12 in 8.0 mi South 13.8 mph - N/A   Clear
3:53 PM 72.0 °F - 34.0 °F 25% 30.10 in 8.0 mi SE 10.4 mph 19.6 mph N/A   Clear
4:53 PM 73.0 °F - 35.1 °F 25% 30.09 in 9.0 mi SE 6.9 mph 17.3 mph N/A   Clear
5:53 PM 70.0 °F - 35.1 °F 28% 30.09 in 9.0 mi SE 6.9 mph - N/A   Clear
6:53 PM 66.9 °F - 36.0 °F 32% 30.06 in 10.0 mi ESE 6.9 mph - N/A   Clear
7:53 PM 66.0 °F - 37.0 °F 34% 30.06 in 9.0 mi Variable 5.8 mph - N/A   Clear
8:53 PM 66.0 °F - 37.9 °F 36% 30.08 in 9.0 mi SE 8.1 mph - N/A   Clear
9:53 PM 64.9 °F - 39.0 °F 39% 30.08 in 9.0 mi SSE 6.9 mph - N/A   Clear
10:53 PM 64.9 °F - 39.9 °F 40% 30.06 in 9.0 mi SE 6.9 mph - N/A   Clear
11:53 PM 63.0 °F - 41.0 °F 45% 30.07 in 9.0 mi South 10.4 mph - N/A   Clear